Terminal Aerodrome Forecast
Issued by NWS Kansas City/Pleasant Hill, MO

Home | Current Version | Previous Version | Text Only | Print | Product List | Glossary On
Versions: 1 2 3 4 5 6 7 8 9 10 11 12 13 14
000
FTUS43 KEAX 190500
TAFMCI
TAF
KMCI 190528Z 1906/2006 22011KT P6SM BKN110
     FM191600 30012G20KT P6SM SCT025 BKN035
     FM200000 28005KT P6SM SCT035=

USA.gov is the U.S. government's official web portal to all federal, state and local government web resources and services.